Ainsworth, NE

2:06 AM CST on November 21, 2019 (GMT -0600)
Ainsworth Municipal

Weather History for KANW - October, 2019

Change the Weather History Date:

Friday, October 18, 2019

  Actual Average Record
Temperature  
Mean Temperature 52 °F -  
Max Temperature 64 °F 59 °F 86 °F (2003)
Min Temperature 40 °F 35 °F 24 °F (1996)
Degree Days  
Heating Degree Days 13    
Growing Degree Days 2 (Base 50)    
Moisture  
Dew Point 38 °F    
Average Humidity 57    
Maximum Humidity 86    
Minimum Humidity 32    
Precipitation  
Precipitation 0.00 in - - ()
Sea Level Pressure  
Sea Level Pressure 29.55 in    
Wind  
Wind Speed 12 mph ()    
Max Wind Speed 24 mph    
Max Gust Speed 33 mph    
Visibility 10.0 miles    
Events      
Averages and records for this station are not official NWS values.
T = Trace of Precipitation, MM = Missing Value Source: Averaged Metar Reports

Daily Weather History Graph

Daily Weather History Graph

Search for Another Location

Airport or City:

Astronomy

Oct. 18, 2019 Rise Set
Actual Time 7:56 AM CDT 6:53 PM CDT
Civil Twilight 7:27 AM CDT 7:21 PM CDT
Nautical Twilight 6:55 AM CDT 7:54 PM CDT
Astronomical Twilight 6:22 AM CDT 8:26 PM CDT
Moon 10:06 PM CDT (10/18) 12:35 PM CDT (10/18)
Length of Visible Light 11h 53m
Length of Day
10h 56m
Waning Gibbous, 78% of the Moon is Illuminated
Oct 18
Waning Gibbous
Oct 21
Last Quarter
Oct 27
New
Nov 4
First Quarter
Nov 12
Full

Hourly Weather History & Observations

Time (CDT) Temp. Windchill Dew Point Humidity Pressure Visibility Wind Dir Wind Speed Gust Speed Precip Events Conditions
12:15 AM 56.5 °F - 39.2 °F 52% 29.56 in 10.0 mi South 13.8 mph 20.7 mph N/A   Clear
12:35 AM 55.6 °F - 39.2 °F 54% 29.55 in 10.0 mi South 16.1 mph - N/A   Clear
12:55 AM 55.0 °F - 39.2 °F 55% 29.54 in 10.0 mi South 17.3 mph 20.7 mph N/A   Clear
1:15 AM 54.1 °F - 39.2 °F 57% 29.54 in 10.0 mi South 12.7 mph - N/A   Clear
1:35 AM 54.1 °F - 39.2 °F 57% 29.53 in 10.0 mi South 15.0 mph 19.6 mph N/A   Clear
1:55 AM 53.6 °F - 39.0 °F 58% 29.51 in 10.0 mi South 15.0 mph - N/A   Clear
2:15 AM 53.2 °F - 39.2 °F 59% 29.50 in 10.0 mi South 16.1 mph - N/A   Clear
2:35 AM 53.1 °F - 38.8 °F 59% 29.49 in 10.0 mi South 15.0 mph - N/A   Clear
2:55 AM 52.7 °F - 38.7 °F 59% 29.49 in 10.0 mi South 12.7 mph - N/A   Clear
3:15 AM 52.5 °F - 38.5 °F 59% 29.49 in 10.0 mi South 12.7 mph - N/A   Clear
3:35 AM 52.0 °F - 38.5 °F 60% 29.48 in 10.0 mi South 12.7 mph - N/A   Clear
3:55 AM 51.3 °F - 38.5 °F 62% 29.47 in 10.0 mi South 12.7 mph - N/A   Clear
4:15 AM 50.0 °F - 38.5 °F 65% 29.46 in 10.0 mi South 11.5 mph - N/A   Clear
4:35 AM 49.6 °F - 38.5 °F 65% 29.46 in 10.0 mi South 12.7 mph - N/A   Clear
5:15 AM 48.4 °F - 38.3 °F 68% 29.45 in 10.0 mi South 11.5 mph - N/A   Clear
5:35 AM 48.4 °F - 38.1 °F 68% 29.44 in 10.0 mi South 10.4 mph - N/A   Clear
5:55 AM 47.5 °F - 37.9 °F 69% 29.44 in 10.0 mi South 12.7 mph - N/A   Clear
6:15 AM 46.8 °F - 37.6 °F 70% 29.43 in 10.0 mi South 11.5 mph - N/A   Clear
6:35 AM 46.4 °F 41.9 °F 37.6 °F 71% 29.44 in 10.0 mi South 9.2 mph - N/A   Clear
6:55 AM 45.0 °F 40.6 °F 37.0 °F 74% 29.44 in 10.0 mi South 8.1 mph - N/A   Clear
7:15 AM 44.1 °F 40.1 °F 36.9 °F 76% 29.43 in 10.0 mi South 6.9 mph - N/A   Clear
7:35 AM 41.2 °F 37.3 °F 36.1 °F 82% 29.43 in 10.0 mi South 5.8 mph - N/A   Clear
7:55 AM 40.5 °F 38.4 °F 36.7 °F 86% 29.43 in 10.0 mi South 3.5 mph - N/A   Clear
8:15 AM 40.3 °F 35.5 °F 36.5 °F 86% 29.42 in 10.0 mi South 6.9 mph - N/A   Clear
8:35 AM 42.1 °F 39.2 °F 37.6 °F 84% 29.43 in 10.0 mi South 4.6 mph - N/A   Clear
8:55 AM 45.1 °F 40.8 °F 38.7 °F 78% 29.43 in 10.0 mi South 8.1 mph - N/A   Clear
9:15 AM 49.5 °F - 38.5 °F 66% 29.43 in 10.0 mi SSW 10.4 mph - N/A   Clear
9:35 AM 51.1 °F - 38.7 °F 63% 29.44 in 10.0 mi SW 8.1 mph - N/A   Clear
9:55 AM 52.7 °F - 39.2 °F 60% 29.43 in 10.0 mi WSW 10.4 mph - N/A   Clear
10:15 AM 53.6 °F - 38.7 °F 57% 29.43 in 10.0 mi West 10.4 mph - N/A   Clear
10:35 AM 54.1 °F - 38.1 °F 55% 29.43 in 10.0 mi NNW 16.1 mph 19.6 mph N/A   Clear
10:55 AM 55.4 °F - 38.1 °F 52% 29.44 in 10.0 mi NW 17.3 mph - N/A   Clear
11:15 AM 56.8 °F - 38.8 °F 51% 29.44 in 10.0 mi NNW 18.4 mph 25.3 mph N/A   Clear
11:35 AM 57.6 °F - 38.7 °F 49% 29.45 in 10.0 mi NW 20.7 mph 26.5 mph N/A   Clear
11:55 AM 58.3 °F - 38.5 °F 48% 29.47 in 10.0 mi NW 21.9 mph 26.5 mph N/A   Clear
12:15 PM 59.2 °F - 38.1 °F 46% 29.47 in 10.0 mi NNW 18.4 mph 24.2 mph N/A   Clear
12:35 PM 60.3 °F - 38.5 °F 44% 29.48 in 10.0 mi NNW 18.4 mph 26.5 mph N/A   Clear
12:55 PM 61.5 °F - 38.8 °F 43% 29.50 in 10.0 mi NNW 19.6 mph 27.6 mph N/A   Clear
1:15 PM 62.2 °F - 38.5 °F 41% 29.51 in 10.0 mi NNW 21.9 mph 31.1 mph N/A   Clear
1:35 PM 63.0 °F - 38.3 °F 40% 29.51 in 10.0 mi NW 23.0 mph 29.9 mph N/A   Clear
1:55 PM 63.3 °F - 38.1 °F 39% 29.52 in 10.0 mi NW 21.9 mph 29.9 mph N/A   Clear
2:15 PM 63.9 °F - 37.8 °F 38% 29.53 in 10.0 mi NW 17.3 mph 28.8 mph N/A   Clear
2:35 PM 64.4 °F - 37.4 °F 37% 29.53 in 10.0 mi NW 23.0 mph 31.1 mph N/A   Clear
2:55 PM 64.6 °F - 37.0 °F 36% 29.54 in 10.0 mi NNW 18.4 mph 29.9 mph N/A   Clear
3:15 PM 64.4 °F - 36.0 °F 35% 29.55 in 10.0 mi NNW 23.0 mph 28.8 mph N/A   Clear
3:35 PM 64.6 °F - 34.7 °F 33% 29.57 in 10.0 mi NNW 24.2 mph 33.4 mph N/A   Clear
3:55 PM 64.4 °F - 33.8 °F 32% 29.58 in 10.0 mi NNW 23.0 mph 28.8 mph N/A   Clear
4:15 PM 63.9 °F - 34.0 °F 33% 29.59 in 10.0 mi NW 21.9 mph 31.1 mph N/A   Clear
4:35 PM 62.8 °F - 33.3 °F 33% 29.60 in 10.0 mi NNW 21.9 mph 29.9 mph N/A   Clear
4:55 PM 61.2 °F - 34.3 °F 37% 29.61 in 10.0 mi NNW 24.2 mph 31.1 mph N/A   Clear
5:15 PM 60.3 °F - 34.5 °F 38% 29.63 in 10.0 mi NW 18.4 mph 26.5 mph N/A   Clear
5:35 PM 59.0 °F - 34.2 °F 39% 29.63 in 10.0 mi NNW 19.6 mph 26.5 mph N/A   Clear
5:55 PM 58.3 °F - 33.4 °F 39% 29.65 in 10.0 mi NNW 16.1 mph 25.3 mph N/A   Scattered Clouds
6:15 PM 58.1 °F - 32.7 °F 38% 29.67 in 10.0 mi NNW 13.8 mph 24.2 mph N/A   Mostly Cloudy
6:35 PM 57.6 °F - 32.2 °F 38% 29.68 in 10.0 mi NNW 15.0 mph 24.2 mph N/A   Overcast
6:55 PM 56.3 °F - 33.3 °F 42% 29.69 in 10.0 mi NW 15.0 mph 20.7 mph N/A   Overcast
7:15 PM 54.9 °F - 35.4 °F 48% 29.69 in 10.0 mi NW 8.1 mph - N/A   Mostly Cloudy
7:35 PM 53.6 °F - 37.8 °F 55% 29.70 in 10.0 mi NW 10.4 mph - N/A   Overcast
7:55 PM 52.0 °F - 39.6 °F 63% 29.71 in 10.0 mi WNW 4.6 mph - N/A   Overcast
8:15 PM 51.3 °F - 39.6 °F 64% 29.72 in 10.0 mi WNW 3.5 mph - N/A   Overcast
8:35 PM 50.9 °F - 39.9 °F 66% 29.74 in 10.0 mi West 3.5 mph - N/A   Overcast
8:55 PM 50.5 °F - 40.5 °F 68% 29.73 in 10.0 mi WNW 5.8 mph - N/A   Overcast
9:15 PM 50.2 °F - 41.0 °F 71% 29.74 in 10.0 mi WNW 5.8 mph - N/A   Scattered Clouds
9:35 PM 49.6 °F - 41.0 °F 72% 29.73 in 10.0 mi NW 5.8 mph - N/A   Clear
9:55 PM 49.8 °F - 40.5 °F 70% 29.75 in 10.0 mi WNW 4.6 mph - N/A   Clear
10:15 PM 49.6 °F - 40.3 °F 70% 29.76 in 10.0 mi WNW 4.6 mph - N/A   Clear
10:35 PM 48.9 °F - 39.6 °F 70% 29.75 in 10.0 mi NW 5.8 mph - N/A   Clear
10:55 PM 47.5 °F - 39.4 °F 73% 29.75 in 10.0 mi WNW 4.6 mph - N/A   Clear
11:15 PM 45.9 °F 42.9 °F 39.4 °F 78% 29.75 in 10.0 mi WNW 5.8 mph - N/A   Clear
11:35 PM 44.6 °F 41.4 °F 39.2 °F 81% 29.75 in 10.0 mi WNW 5.8 mph - N/A   Clear
11:55 PM 44.6 °F - 39.7 °F 83% 29.76 in 10.0 mi Calm Calm - N/A   Clear